Погода в Савинцах

Украина / Харьковская область     49°24′32″N   37°03′07″E
темп.,
°C
ветер,
м/с
пор.,
м/с
влажн.,
%
обл.,
%
осадки,
мм/ч
давл.,
гПа
погр.,
м
22 января, сб
сб2223:00−6ююз5119242 0.0 1009290
02:00−8ююз499539 0.0 1009155
05:00−7ююз5119591 0.1 1009306
08:00−8ююз499788 0.1 1010191
11:00−5ююз599498 0.1 1011426
14:00−4юз4993100 0.1 1012535
17:00−5ююз3793100 0.1 1014156
20:00−6ю359596 0.1 101566
23 января, вс
вс2323:00−9ю2498100 0.2 101645
02:00−9ю119978 0.3 101710
05:00−13вюв1110086 0.0 10189
08:00−12в2296100 0.0 102034
11:00−6св3491100 0.0 1021148
14:00−5св4992100 0.0 1021353
17:00−6ссв51193100 0.0 1022300
20:00−7ссв61491100 0.0 1023340
24 января, пн
пн2423:00−6ссв71594100 0.1 1023525
02:00−5ссв81595100 1.1 1021527
05:00−4св71595100 1.4 1021565
08:00−4всв71394100 2.4 1022583
11:00−4всв6119596 1.1 1023539
14:00−4всв5893100 1.3 1024456
17:00−7св4894100 0.1 1025249
20:00−6св4895100 0.3 1025286
25 января, вт
вт2523:00−6св3796100 0.8 1025270
02:00−6св3596100 2.1 1023216
05:00−8св249690 0.6 102399
08:00−8всв2396100 0.8 102397
11:00−5ююв1292100 0.3 1022248
14:00−4юз249497 0.6 1021360
17:00−8ююз229881 0.2 102213
20:00−8ююз379873 0.3 1022126
26 января, ср
ср2623:00−7ююз3796100 0.1 1021252
02:00−10ю359885 0.1 102182
05:00−11ю369790 0.1 1020116
08:00−9ю3796100 0.4 1020234
11:00−6ююз4793100 0.3 1019468
14:00−5ююз359294 0.5 1018468
17:00−8ююв1198100 0.1 101810
20:00−8юв2298100 0.1 101832